User: anonymous   Login
Location: Ferma
(41.9500°N, 44.5167°E)
Time: 11:31:45
(UTC+00:00)
Language:

Delta 2 Rocket - Orbit

View from above orbital plane
View from above orbital plane
View from above satellite
View from above satellite

Ground track
Ground track

The orbit data is extracted from the following two-line orbital elements,

1 20453U 90008B   22021.53732181  .00002136  00000-0  11792-3 0  9993
2 20453  35.6245  53.5606 0272977 138.8733 223.2902 14.87576178698000
Epoch (UTC): 21 January 2022 12:53:44
Eccentricity: 0.0272977
inclination: 35.6245°
perigee height: 415 km
apogee height: 796 km
right ascension of ascending node: 53.5606°
argument of perigee: 138.8733°
revolutions per day: 14.87576178
mean anomaly at epoch: 223.2902°
orbit number at epoch: 69800

The dashed part of the orbit path shows where the satellite is in the earth's shadow,  

DLR